Location: Franzen
(48.6167°N, 15.3833°E)
Time: 05:16:42
(UTC+00:00)

Altair - Pass Details

Date: 08 August 2021
Orbit: 1501 x 1682 km, 47.2° (Epoch: 21 September)

Event Time Altitude Azimuth Distance (km) Brightness Sun altitude
Exits shadow 01:07:39 - 260° (W) 3,845 9.2 -19.7°
Reaches altitude 10° 01:07:56 10° 260° (W) 3,751 9.2 -19.7°
Maximum altitude 01:17:24 83° 175° (S) 1,539 7.4 -18.8°
Drops below altitude 10° 01:26:37 10° 89° (E) 3,658 10.0 -17.9°
Sets 01:29:36 0° 89° (E) 4,635 10.6 -17.7°
